KG6SIB Weather Reports


time (UTC)temp
C
wind
direction
speed
KPH
gust
KPH
rain 1hr
cm
rain 24hr
cm
rain mn
cm
humidity
%
barometer
mb
20260502195629 26 242 0.0 19.3 0.00 0.00 0.00 39 1014.7
20260502195129 26 251 1.6 19.3 0.00 0.00 0.00 39 1014.8
20260502194630 26 246 11.3 17.7 0.00 0.00 0.00 41 1014.7
20260502194130 26 229 8.0 17.7 0.00 0.00 0.00 41 1014.6
20260502193629 26 234 4.8 16.1 0.00 0.00 0.00 40 1014.8
20260502193129 27 229 9.7 14.5 0.00 0.00 0.00 39 1014.9
20260502192630 27 238 6.4 14.5 0.00 0.00 0.00 33 1014.9
20260502192129 27 216 0.0 16.1 0.00 0.00 0.00 37 1015.2
20260502191630 27 315 6.4 17.7 0.00 0.00 0.00 36 1015.1
20260502191129 27 198 9.7 19.3 0.00 0.00 0.00 37 1015.2
20260502190629 27 242 12.9 19.3 0.00 0.00 0.00 36 1014.9
20260502190129 27 233 6.4 12.9 0.00 0.00 0.00 39 1015.0
20260502185629 26 252 6.4 16.1 0.00 0.00 0.00 35 1014.9
20260502185129 26 246 6.4 16.1 0.00 0.00 0.00 36 1015.0
20260502184129 26 228 4.8 17.7 0.00 0.00 0.00 39 1014.9
20260502183629 26 236 3.2 17.7 0.00 0.00 0.00 37 1014.8
20260502182629 26 188 3.2 12.9 0.00 0.00 0.00 38 1015.1
20260502182129 26 223 6.4 12.9 0.00 0.00 0.00 40 1015.1
20260502181629 25 232 6.4 12.9 0.00 0.00 0.00 39 1015.1
20260502180629 25 193 4.8 16.1 0.00 0.00 0.00 40 1015.3
20260502180129 25 228 1.6 16.1 0.00 0.00 0.00 43 1015.3
20260502170128 25 214 8.0 14.5 0.00 0.00 0.00 37 1015.5
20260502164128 25 202 4.8 9.7 0.00 0.00 0.00 39 1015.7
20260502163628 25 178 6.4 9.7 0.00 0.00 0.00 35 1016.0
20260502163128 25 175 3.2 11.3 0.00 0.00 0.00 34 1015.9
20260502162629 26 142 6.4 20.9 0.00 0.00 0.00 33 1015.9
20260502162127 26 86 4.8 20.9 0.00 0.00 0.00 24 1015.7
20260502161127 26 105 16.1 19.3 0.00 0.00 0.00 22 1015.5
20260502160627 26 15 12.9 17.7 0.00 0.00 0.00 25 1015.7
20260502160128 26 90 6.4 19.3 0.00 0.00 0.00 25 1015.7
20260502152127 23 38 11.3 20.9 0.00 0.00 0.00 29 1015.4
20260502150627 21 80 12.9 20.9 0.00 0.00 0.00 34 1015.1
20260502150127 21 65 6.4 20.9 0.00 0.00 0.00 36 1014.9
20260502140126 11 48 3.2 6.4 0.00 0.00 0.00 66 1013.6
20260502130625 8 78 8.0 9.7 0.00 0.00 0.00 67 1013.5
20260502130125 8 53 6.4 11.3 0.00 0.00 0.00 68 1013.5
20260502123625 9 41 8.0 12.9 0.00 0.00 0.00 66 1014.0
20260502123125 9 46 8.0 12.9 0.00 0.00 0.00 65 1014.0
20260502122625 9 71 9.7 12.9 0.00 0.00 0.00 65 1013.9
20260502121625 9 44 4.8 12.9 0.00 0.00 0.00 65 1013.9
20260502121125 9 59 6.4 12.9 0.00 0.00 0.00 65 1014.0
20260502120625 9 73 8.0 12.9 0.00 0.00 0.00 65 1014.0
20260502120125 9 76 11.3 12.9 0.00 0.00 0.00 65 1013.9
20260502115625 9 55 8.0 11.3 0.00 0.00 0.00 65 1014.6
20260502114124 9 84 6.4 12.9 0.00 0.00 0.00 65 1014.6
20260502113624 9 70 8.0 12.9 0.00 0.00 0.00 65 1014.7
20260502113125 9 68 8.0 11.3 0.00 0.00 0.00 64 1014.6
20260502112625 9 79 6.4 11.3 0.00 0.00 0.00 64 1014.7
20260502111624 9 46 8.0 14.5 0.00 0.00 0.00 64 1014.6
20260502111124 10 51 6.4 14.5 0.00 0.00 0.00 63 1014.6
20260502110624 10 60 6.4 12.9 0.00 0.00 0.00 62 1014.5
20260502110124 10 48 11.3 12.9 0.00 0.00 0.00 61 1014.4
20260502105624 10 37 8.0 16.1 0.00 0.00 0.00 62 1015.0
20260502105124 10 67 8.0 16.1 0.00 0.00 0.00 62 1015.1
20260502104124 10 58 8.0 14.5 0.00 0.00 0.00 62 1015.1
20260502103624 10 55 14.5 14.5 0.00 0.00 0.00 62 1015.1
20260502103124 10 80 8.0 11.3 0.00 0.00 0.00 63 1015.1
20260502102624 9 42 8.0 12.9 0.00 0.00 0.00 63 1014.8
20260502102123 10 73 6.4 12.9 0.00 0.00 0.00 63 1015.1
20260502101623 10 53 8.0 12.9 0.00 0.00 0.00 63 1015.1
20260502101123 10 80 8.0 12.9 0.00 0.00 0.00 63 1015.1
20260502100624 10 82 6.4 14.5 0.00 0.00 0.00 63 1015.1
20260502100123 10 60 8.0 14.5 0.00 0.00 0.00 62 1015.1
20260502091122 10 71 4.8 12.9 0.00 0.00 0.00 64 1015.3
20260502090123 10 71 4.8 14.5 0.00 0.00 0.00 64 1015.5
20260502071122 10 83 6.4 12.9 0.00 0.00 0.00 66 1015.7
20260502070621 10 15 8.0 12.9 0.00 0.00 0.00 66 1015.7
20260502070151 10 52 6.4 12.9 0.00 0.00 0.00 66 1015.7
20260502065622 10 62 9.7 12.9 0.00 0.00 0.00 66 1015.7
20260502065121 10 71 8.0 11.3 0.00 0.00 0.00 66 1015.7
20260502064621 10 57 8.0 11.3 0.00 0.00 0.00 66 1015.6
20260502064121 10 50 6.4 11.3 0.00 0.00 0.00 66 1015.6
20260502063621 10 64 8.0 11.3 0.00 0.00 0.00 66 1015.6
20260502062621 10 65 6.4 9.7 0.00 0.00 0.00 66 1015.7
20260502062121 10 59 9.7 11.3 0.00 0.00 0.00 66 1015.9
20260502061621 10 57 6.4 11.3 0.00 0.00 0.00 66 1015.9
20260502060620 10 49 8.0 11.3 0.00 0.00 0.00 65 1015.8
20260502060121 10 51 6.4 11.3 0.00 0.00 0.00 65 1015.8
20260502055620 11 62 6.4 12.9 0.00 0.00 0.00 65 1015.5
20260502055120 11 61 6.4 12.9 0.00 0.00 0.00 65 1015.5
20260502054620 11 78 8.0 11.3 0.00 0.00 0.00 66 1015.4
20260502054121 11 32 6.4 12.9 0.00 0.00 0.00 65 1015.4
20260502053620 11 53 8.0 14.5 0.00 0.00 0.00 66 1015.5
20260502053121 11 88 6.4 14.5 0.00 0.00 0.00 66 1015.5
20260502052620 11 48 6.4 9.7 0.00 0.00 0.00 67 1015.5
20260502052120 11 46 4.8 12.9 0.00 0.00 0.00 68 1015.5
20260502051620 11 22 8.0 12.9 0.00 0.00 0.00 68 1015.6
20260502051120 11 32 6.4 11.3 0.00 0.00 0.00 70 1015.6
20260502050620 11 27 4.8 11.3 0.00 0.00 0.00 71 1015.5
20260502050150 11 57 6.4 11.3 0.00 0.00 0.00 71 1015.6
20260502045620 11 24 6.4 11.3 0.00 0.00 0.00 72 1015.6
20260502044619 11 67 4.8 9.7 0.00 0.00 0.00 75 1015.5
20260502044120 11 69 6.4 11.3 0.00 0.00 0.00 76 1015.3
20260502043120 11 45 8.0 9.7 0.00 0.00 0.00 79 1015.4
20260502042620 11 42 8.0 9.7 0.00 0.00 0.00 79 1015.4
20260502042119 11 71 6.4 9.7 0.00 0.00 0.00 80 1015.4
20260502041120 11 47 6.4 11.3 0.00 0.00 0.00 81 1015.4
20260502040149 11 30 6.4 11.3 0.00 0.00 0.00 82 1015.4
20260502035619 11 36 6.4 11.3 0.00 0.00 0.00 82 1014.7
20260502035119 12 59 4.8 11.3 0.00 0.00 0.00 81 1014.9
20260502034619 12 67 6.4 8.0 0.00 0.00 0.00 81 1014.9
20260502034119 12 57 4.8 8.0 0.00 0.00 0.00 80 1014.9
20260502033619 12 44 6.4 8.0 0.00 0.00 0.00 80 1014.8
20260502033119 12 42 4.8 6.4 0.00 0.00 0.00 79 1014.8
20260502032619 13 37 3.2 6.4 0.00 0.00 0.00 78 1015.0
20260502032119 13 307 3.2 4.8 0.00 0.00 0.00 78 1014.8
20260502031619 13 236 0.0 3.2 0.00 0.00 0.00 77 1014.8
20260502031119 13 236 0.0 3.2 0.00 0.00 0.00 76 1014.9
20260502030648 14 236 3.2 4.8 0.00 0.00 0.00 76 1015.1
20260502030148 14 236 1.6 4.8 0.00 0.00 0.00 75 1015.0
20260502025649 15 236 3.2 4.8 0.00 0.00 0.00 74 1014.1
20260502025148 15 235 3.2 4.8 0.00 0.00 0.00 73 1014.0
20260502024648 15 235 0.0 0.0 0.00 0.00 0.00 72 1013.9
20260502024148 16 235 0.0 0.0 0.00 0.00 0.00 72 1014.1
20260502023648 16 235 0.0 0.0 0.00 0.00 0.00 72 1014.0
20260502022648 17 235 0.0 4.8 0.00 0.00 0.00 71 1014.2
20260502022148 17 235 0.0 4.8 0.00 0.00 0.00 70 1014.2
20260502021148 17 237 3.2 9.7 0.00 0.00 0.00 69 1014.2
20260502020648 18 234 0.0 9.7 0.00 0.00 0.00 68 1014.5
20260502020148 18 237 1.6 9.7 0.00 0.00 0.00 67 1014.4
20260502015648 18 281 0.0 8.0 0.00 0.00 0.00 66 1013.1
20260502014648 18 245 6.4 12.9 0.00 0.00 0.00 65 1013.1
20260502014148 19 247 1.6 12.9 0.00 0.00 0.00 64 1013.4
20260502013648 19 249 0.0 11.3 0.00 0.00 0.00 64 1013.3
20260502013148 19 265 3.2 11.3 0.00 0.00 0.00 63 1013.2
20260502012648 20 253 3.2 12.9 0.00 0.00 0.00 63 1013.3
20260502012148 20 242 6.4 16.1 0.00 0.00 0.00 62 1013.2
20260502011148 20 233 9.7 14.5 0.00 0.00 0.00 60 1013.4
20260502010648 20 244 3.2 16.1 0.00 0.00 0.00 59 1013.5
20260502010148 21 213 6.4 16.1 0.00 0.00 0.00 58 1013.5
20260502005647 21 194 9.7 12.9 0.00 0.00 0.00 57 1013.3
20260502005147 21 250 11.3 14.5 0.00 0.00 0.00 56 1013.3
20260502004647 22 242 3.2 14.5 0.00 0.00 0.00 55 1013.5
20260502004148 22 234 4.8 14.5 0.00 0.00 0.00 54 1013.4
20260502003648 22 229 0.0 14.5 0.00 0.00 0.00 54 1013.4
20260502003148 22 245 11.3 14.5 0.00 0.00 0.00 53 1013.4
20260502001647 23 243 4.8 16.1 0.00 0.00 0.00 52 1013.7
20260502001147 23 243 6.4 16.1 0.00 0.00 0.00 51 1013.6
20260502000647 23 173 3.2 16.1 0.00 0.00 0.00 50 1013.7
20260502000147 23 198 9.7 17.7 0.00 0.00 0.00 50 1013.7
20260501235647 24 235 8.0 17.7 0.00 0.00 0.00 49 1014.0
20260501235147 24 257 8.0 14.5 0.00 0.00 0.00 48 1013.9
20260501234647 24 207 4.8 17.7 0.00 0.00 0.00 47 1013.9
20260501234147 25 252 3.2 17.7 0.00 0.00 0.00 47 1013.8
20260501233647 25 219 6.4 12.9 0.00 0.00 0.00 46 1013.8
20260501233147 25 228 9.7 17.7 0.00 0.00 0.00 46 1013.8
20260501232646 25 187 6.4 17.7 0.00 0.00 0.00 45 1013.8
20260501232146 25 216 11.3 17.7 0.00 0.00 0.00 44 1013.9
20260501231647 25 210 9.7 17.7 0.00 0.00 0.00 44 1013.9
20260501231146 25 194 4.8 17.7 0.00 0.00 0.00 44 1014.1
20260501230646 25 198 1.6 17.7 0.00 0.00 0.00 44 1014.3
20260501230146 25 263 1.6 16.1 0.00 0.00 0.00 43 1014.2
20260501225647 25 233 12.9 16.1 0.00 0.00 0.00 44 1014.3
20260501225146 25 261 0.0 14.5 0.00 0.00 0.00 43 1014.3
20260501224646 25 92 0.0 14.5 0.00 0.00 0.00 40 1014.5
20260501223646 25 205 3.2 16.1 0.00 0.00 0.00 44 1014.6
20260501222646 25 180 6.4 19.3 0.00 0.00 0.00 44 1014.7
20260501222146 25 179 3.2 19.3 0.00 0.00 0.00 43 1014.9
20260501221646 25 195 8.0 19.3 0.00 0.00 0.00 43 1014.9
20260501220646 25 201 1.6 19.3 0.00 0.00 0.00 43 1015.0
20260501215645 25 211 4.8 17.7 0.00 0.00 0.00 42 1015.1
20260501215146 25 190 6.4 17.7 0.00 0.00 0.00 43 1015.1
20260501214146 25 259 6.4 17.7 0.00 0.00 0.00 43 1015.1
20260501213645 25 227 9.7 19.3 0.00 0.00 0.00 42 1015.1
20260501212646 25 234 4.8 17.7 0.00 0.00 0.00 42 1015.3
20260501212145 25 227 8.0 17.7 0.00 0.00 0.00 42 1015.3
20260501211645 25 205 3.2 14.5 0.00 0.00 0.00 44 1015.4
20260501211145 25 324 1.6 17.7 0.00 0.00 0.00 44 1015.3
20260501210645 25 192 3.2 17.7 0.00 0.00 0.00 45 1015.4
20260501210145 25 229 12.9 17.7 0.00 0.00 0.00 43 1015.4
20260501205645 25 226 14.5 17.7 0.00 0.00 0.00 44 1015.6
20260501205145 25 248 14.5 16.1 0.00 0.00 0.00 44 1015.7
20260501204645 25 213 8.0 12.9 0.00 0.00 0.00 44 1015.4
20260501203645 24 247 6.4 16.1 0.00 0.00 0.00 43 1015.5
20260501202645 25 238 6.4 16.1 0.00 0.00 0.00 43 1015.4
20260501200645 24 230 3.2 14.5 0.00 0.00 0.00 44 1015.3